STARLINK-5914, 55941

Orbit data source: Space-Track

STARLINK-5914, 55941 is a payload satellite owned by SpaceX/Seattle (US) in LEO that was launched on Fri, 17 Mar 2023 UTC via an FALCON 9 launch vehicle from the Air Force Western Test Range (AFWTR). Payload-class satellites include a variety of spacecraft equipped with specific instruments for various scientific and technological missions. These include communications satellites like Starlink; space stations such as the ISS; scientific satellites like the Hubble; Earth observation satellites from companies like Planet Labs, Umbra, and HawkEye 360; GPS; miniature CubeSats for education and research; and military/defense satellites.

Loading next visibility...
Identifier
55941, 2023-037AD
Orbit
LEO
Country
Flag of USUS
Related business
Manufacturer
SpaceX/Seattle
Mission
Operational Commercial Communications
Bus & Motor
STARLINK, Unknown motor
Mass
305 kg wet, ~290 kg dry
Launch date (UTC)
2023-03-17 (3 years ago)
Launch vehicle
FALCON 9
Launch site
Air Force Western Test Range (AFWTR)
Object type
Payload
Rocket body
Debris
Shape & HBR
Box + 1 Pan, 10.1 m
Radar Cross Section
11.087 m², Large (>1 m²)

Expand to show TLE details & history
Last TLE update: 2 days ago

TLE from 2 days ago
0 STARLINK-5914
1 55941U 23037AD  26171.01307732  .00000266  00000-0  30058-4 0  9993
2 55941  70.0001  26.6106 0002803 269.3030  90.7808 14.98330482179305
Epoch: 2026-06-20T00:18Z
TLE epoch observation values (Epoch: 2026-06-20T00:18:49.880Z)
Latitude
-0.00001°
Longitude
113.66896°
Altitude
574.505 km
Speed
7.574 km/s
True Right ascension
01h 46m 26s
True Declination
0° 00' 00"
Sunlit
Object was in daylight at epoch
Visualization orbit readout
Latitude
Unknown
Longitude
Unknown
Altitude
Unknown
Speed
Unknown
Apparent Right ascension
Unknown
Apparent Declination
Unknown
Sunlit
N/A
Visualization observer readout
Local Sidereal Time
21:38:47
Azimuth
Unknown
Elevation
Unknown
Doppler factor
Unknown
Orbital elements
Apogee altitude
571.95 km
Perigee altitude
568.055 km
Semi-major axis
6,948.14 km
Eccentricity
0.00028
Inclination
70.0001°
RAAN
26.6106°
Arg. of periapsis
269.303°
True anomaly
90.81292°
Mean anomaly
90.7808°
Eccentric anomaly
90.79686°
Mean motion
3.74749 °/min
Orbital period
96.06 mins
BSTAR
0.000030058
Loading maneuver chart data...
Computing Atmospheric mass density...
Loading historical data...
Loading historical data...
Loading historical data...
Loading historical data...
Loading historical data...
Loading historical data...
Loading historical data...

Documentation

Showing up to 5 results
|